CZ-4C DEB

Satellite information

Favourite Embed

Satellite Type and Status

DEBRISIN ORBIT

Key statistics

Satellite CZ-4C DEB at a glance.

Uptime

6559

Days in orbit

Revolutions

≈ 14.5

Per day

Orbit

SSO

Sun Synchronous Orbit

Inclination

97.8

Latest

Satellite identification and parameters

Extended collection of information and parameters for CZ-4C DEB.

Object identification

Identified? True

Debris? True

Object name: CZ-4C DEB

International designator: 2007-055D

Object number (NORAD): 35249

Object ID (CCSDS): 35249

Country: PEOPLES REPUBLIC OF CHINA (PRC)

Current information (Y/N): Y

RCS size: SMALL

Orbital parameters

Period: 99.419 minutes

Inclination: 97.7577 deg

SMA: 7108.946 km

Apoapsis: 875.869 km

Periapsis: 585.752 km

RAAN: 124.8437 deg

Eccentricy: 0.02040505

Argument of periapsis: 224.4725 deg

Mean anomaly: 133.9934 deg

Mean motion: 14.48421542 rev/day

Mean motion (dot): 0.00007633 rev/day2

B* drag term: 0.0015729791 1/REarth

Two-line elements (TLE)

Creation date: Oct. 25, 2025, 3:11 a.m.

Reference frame: TEME

Reference center: EARTH

Epoch: Oct. 24, 2025, 6:39 p.m. UTC

TLE line 0: 0 CZ-4C DEB

TLE line 1: 1 35249U 07055D 25297.77739687 .00007633 00000-0 15730-2 0 9996

TLE line 2: 2 35249 97.7577 124.8437 0204050 224.4725 133.9934 14.48421542936211

Live tracking on map

Real-time ground track for satellite CZ-4C DEB.

In-orbit conjunctions

A list of the most updated potential collisions computed for object CZ-4C DEB.

Target Orbit TCA Probability of collision Miss distance Type
COSMOS 1275 DEB LEO 2025-10-11 14:22:29 0.0001120869 214.0 (m) DEBRIS
COSMOS 1570 LEO 2025-09-27 02:01:06 0.0002659379 516.0 (m) PAYLOAD
COSMOS 2251 DEB LEO 2025-09-20 05:02:37 0.0001279905 520.0 (m) DEBRIS
CZ-4 DEB SSO 2025-08-04 20:44:07 0.0001036703 118.0 (m) DEBRIS
COSMOS 1275 DEB LEO 2024-11-15 15:40:14 0.0001758745 150.0 (m) DEBRIS

Associated space launch

Chinese Earth observation satellite likely also used for military reconnaissance

CZ-4C DEB was lifted into orbit during the mission ‘Long March 4C | Yaogan Weixing 3’, on board a Long March 4C space rocket.

The launch took place on Nov. 11, 2007, 10:48 p.m. from Launch Complex 7.

For more information about the launch, click the button.

Launch to space Long March 4C | Yaogan Weixing 3
Long March 4C | Yaogan Weixing 3

Agency: N/A

Status: Launch Successful

Launch date: Nov. 11, 2007, 10:48 p.m. UTC

Rocket: Long March 4C

Launch pad: Launch Complex 7

Location: Taiyuan Satellite Launch Center, People's Republic of China

...

Latest news about this satellite

There are no fresh news available about this satellite. Check back as we update our databases every day.


Newsletter sign-up

Weekly statistics, charts and insights to help you stay on top of the space industry.